Location: ???????
(52.3000°N, 54.4667°E)
Time: 13:03:08
(UTC+00:00)

Cosmos 2341 Rocket - Pass Details

Date: 24 January 2020
Orbit: 967 x 1005 km, 82.9° (Epoch: 16 February)

Event Time Altitude Azimuth Distance (km) Brightness Sun altitude
Rises 14:00:28 0° 174° (S) 3,717 7.2 -10.2°
Reaches altitude 10° 14:03:01 10° 171° (S) 2,769 6.5 -10.5°
Maximum altitude 14:09:15 59° 93° (E) 1,140 4.1 -11.4°
Drops below altitude 10° 14:15:28 10° 16° (NNE) 2,765 6.1 -12.3°
Sets 14:18:01 0° 13° (NNE) 3,712 6.8 -12.7°
